Weather History for Ft Lauderdale, FL

Change the Weather History Date:

Monday, October 8, 2012

  Actual Average Record
Temperature  
Mean Temperature 80 °F 82 °F  
Max Temperature 86 °F 87 °F 91 °F (1951)
Min Temperature 73 °F 77 °F 60 °F (1913)
Degree Days  
Heating Degree Days 0 0  
Month to date heating degree days 0 0  
Since 1 July heating degree days 0  
Cooling Degree Days 15 17  
Month to date cooling degree days 139 137  
Year to date cooling degree days 3853 3849  
Growing Degree Days 28 (Base 50)    
Moisture  
Dew Point 74 °F    
Average Humidity 83    
Maximum Humidity 91    
Minimum Humidity 74    
Precipitation  
Precipitation 2.72 in 0.29 in 7.08 in (1991)
Month to date precipitation 6.13 2.22  
Year to date precipitation 57.05 51.88  
Snow  
Snow 0.00 in - - ()
Month to date snowfall 0.0  
Since 1 July snowfall 0.0  
Since 1 September snowfall 0.0  
Snow Depth 0.00 in    
Sea Level Pressure  
Sea Level Pressure 29.97 in    
Wind  
Wind Speed 5 mph (East)    
Max Wind Speed 8 mph    
Max Gust Speed 26 mph    
Visibility 8 miles    
Events Rain , Thunderstorm    
T = Trace of Precipitation, MM = Missing Value Source: NWS Daily Summary

Daily Weather History Graph

Daily Weather History Graph

Search for Another Location

Airport:

Trip Planner

Search our weather history database for the weather conditions in past years. The results will help you decide how hot, cold, wet, or windy it might be!

Date:

Astronomy

Oct. 08, 2012 Rise Set
Actual Time 7:16 AM EDT 6:59 PM EDT
Civil Twilight 6:53 AM EDT 7:22 PM EDT
Nautical Twilight 6:26 AM EDT 7:49 PM EDT
Astronomical Twilight 5:59 AM EDT 8:15 PM EDT
Moon 12:32 AM EDT (10/8) 2:12 PM EDT (10/8)
Length of Visible Light 12h 29m
Length of Day
11h 42m
Waning Gibbous, 46% of the Moon is Illuminated
Oct 8
Waning Gibbous
Oct 15
New
Oct 21
First Quarter
Oct 29
Full
Nov 6
Last Quarter

Hourly Weather History & Observations

Time (EDT) Temp. Heat Index Dew Point Humidity Pressure Visibility Wind Dir Wind Speed Gust Speed Precip Events Conditions
12:53 AM 81.0 °F 86.7 °F 75.0 °F 82% 29.94 in 10.0 mi East 5.8 mph - N/A   Partly Cloudy
1:53 AM 81.0 °F 87.3 °F 75.9 °F 85% 29.94 in 10.0 mi ESE 8.1 mph - N/A   Scattered Clouds
2:53 AM 80.1 °F 85.1 °F 75.0 °F 85% 29.92 in 10.0 mi ESE 5.8 mph - N/A   Partly Cloudy
3:53 AM 79.0 °F - 75.0 °F 88% 29.91 in 10.0 mi East 3.5 mph - N/A   Scattered Clouds
4:07 AM 80.6 °F 86.2 °F 75.2 °F 84% 29.92 in 10.0 mi East 4.6 mph - N/A   Mostly Cloudy
4:46 AM 80.6 °F 86.2 °F 75.2 °F 84% 29.93 in 10.0 mi East 10.4 mph - 0.01 in Rain Light Rain
4:53 AM 81.0 °F 86.7 °F 75.0 °F 82% 29.93 in 10.0 mi East 9.2 mph - 0.01 in Rain Light Rain
5:53 AM 80.1 °F 85.1 °F 75.0 °F 85% 29.94 in 10.0 mi Calm Calm - 0.00 in   Scattered Clouds
6:53 AM 81.0 °F 86.7 °F 75.0 °F 82% 29.96 in 10.0 mi East 5.8 mph - N/A   Scattered Clouds
7:43 AM 75.2 °F - 68.0 °F 78% 29.97 in 5.0 mi East 17.3 mph 26.5 mph 0.05 in Rain , Thunderstorm Light Thunderstorms and Rain
7:46 AM 73.4 °F - 69.8 °F 88% 29.97 in 2.5 mi East 17.3 mph 26.5 mph 0.13 in Rain , Thunderstorm Heavy Thunderstorms and Rain
7:48 AM 73.4 °F - 69.8 °F 88% 29.97 in 2.5 mi East 15.0 mph - 0.18 in Rain , Thunderstorm Heavy Thunderstorms and Rain
7:53 AM 73.0 °F - 70.0 °F 90% 29.98 in 3.0 mi East 11.5 mph - 0.27 in Rain , Thunderstorm Heavy Thunderstorms and Rain
8:00 AM 73.4 °F - 71.6 °F 94% 29.99 in 2.0 mi ESE 6.9 mph - 0.17 in Rain Heavy Rain
8:02 AM 73.4 °F - 71.6 °F 94% 29.99 in 2.0 mi SSE 10.4 mph - 0.19 in Rain , Thunderstorm Heavy Thunderstorms and Rain
8:22 AM 73.4 °F - 71.6 °F 94% 30.00 in 1.5 mi SW 9.2 mph - 0.63 in Rain Heavy Rain
8:47 AM 73.4 °F - 73.4 °F 100% 30.02 in 1.0 mi East 10.4 mph - 1.85 in Rain , Thunderstorm Heavy Thunderstorms and Rain
8:53 AM 73.9 °F - 73.9 °F 100% 30.01 in 1.0 mi NE 15.0 mph 20.7 mph 2.22 in Rain , Thunderstorm Heavy Thunderstorms and Rain
9:11 AM 73.4 °F - 71.6 °F 94% 30.01 in 4.0 mi NNE 15.0 mph - 0.19 in Rain , Thunderstorm Heavy Thunderstorms and Rain
9:37 AM 73.4 °F - 71.6 °F 94% 30.01 in 10.0 mi North 3.5 mph - 0.22 in Rain Light Rain
9:53 AM 73.9 °F - 73.0 °F 97% 30.01 in 10.0 mi North 3.5 mph - 0.22 in   Mostly Cloudy
10:53 AM 79.0 °F - 77.0 °F 94% 30.01 in 10.0 mi Calm Calm - 0.00 in Rain Light Rain
11:53 AM 81.0 °F 87.9 °F 77.0 °F 88% 30.00 in 10.0 mi SE 3.5 mph - 0.00 in   Scattered Clouds
12:53 PM 81.0 °F 87.3 °F 75.9 °F 85% 29.98 in 10.0 mi Calm Calm - 0.00 in   Mostly Cloudy
1:53 PM 82.9 °F 91.8 °F 77.0 °F 82% 29.96 in 10.0 mi East 3.5 mph - 0.00 in   Scattered Clouds
2:53 PM 84.9 °F 93.3 °F 75.0 °F 72% 29.94 in 10.0 mi East 6.9 mph - N/A   Scattered Clouds
3:53 PM 84.9 °F 93.3 °F 75.0 °F 72% 29.92 in 10.0 mi ESE 6.9 mph - N/A   Scattered Clouds
4:53 PM 84.9 °F 92.1 °F 73.9 °F 69% 29.93 in 10.0 mi East 8.1 mph - N/A   Scattered Clouds
5:53 PM 82.9 °F 89.4 °F 73.9 °F 74% 29.92 in 10.0 mi East 8.1 mph - N/A   Partly Cloudy
6:53 PM 82.9 °F 90.2 °F 75.0 °F 77% 29.94 in 10.0 mi East 5.8 mph - N/A   Scattered Clouds
7:53 PM 81.0 °F 86.2 °F 73.9 °F 79% 29.95 in 10.0 mi ESE 4.6 mph - N/A   Partly Cloudy
8:53 PM 82.0 °F 87.9 °F 73.9 °F 76% 29.97 in 10.0 mi East 6.9 mph - N/A   Scattered Clouds
9:53 PM 81.0 °F 86.2 °F 73.9 °F 79% 29.99 in 10.0 mi Calm Calm - N/A   Clear
10:53 PM 81.0 °F 86.7 °F 75.0 °F 82% 30.00 in 10.0 mi Calm Calm - N/A   Partly Cloudy
11:53 PM 80.1 °F 85.4 °F 75.9 °F 87% 29.99 in 10.0 mi Calm Calm - N/A   Partly Cloudy